Regional Weather Roundup
Issued by NWS

Home | Current Version | Previous Version | Text Only | Print | Product List | Glossary On
Versions: 1 2 3 4 5 6 7 8 9 10 11 12 13 14 15 16 17 18 19 20 21 22 23 24 25 26 27 28 29 30 31 32 33 34 35 36 37 38 39 40 41 42 43 44 45 46 47 48 49 50
000
ASUS43 KDMX 180901
RWRIA

WEATHER ROUNDUP FOR IOWA
NATIONAL WEATHER SERVICE DES MOINES IA
300 AM CST WED JAN 18 2017

NOTE: "FAIR" INDICATES FEW OR NO CLOUDS BELOW 12,000 FEET WITH NO
SIGNIFICANT WEATHER AND/OR OBSTRUCTIONS TO VISIBILITY.

* - THESE STATIONS ARE NOT NWS STATIONS...THUS NOT UNDER NWS
QUALITY CONTROL.  THEY ALSO DO NOT REPORT WEATHER SUCH
AS PRECIPITATION OR FOG.

IAZ001>003-012>014-020>022-031>034-043>046-181000-
   NORTHWEST IOWA

CITY           SKY/WX    TMP DP  RH WIND       PRES   REMARKS
CARROLL *      CLOUDY    32  32 100 SW9       30.07F WCI  24
CHEROKEE *     CLOUDY    28  28 100 S6        30.03R WCI  21
DENISON *      CLOUDY    28  28 100 S8        30.05S WCI  20
LE MARS *      CLEAR     30  28  93 S12G17    30.01F WCI  21
ORANGE CITY *  CLOUDY    27  27 100 S8        29.98S WCI  18
SHELDON *      CLEAR     28  28 100 S14       29.96S WCI  17
SIOUX CITY     CLEAR     26  24  92 E6        30.03S FOG     WCI  19
SPENCER        CLEAR     27  25  92 S9        30.00S WCI  18
STORM LAKE *   CLOUDY    27  27 100 S13       30.03S FOG     WCI  16
$$

IAZ055>058-069>071-079>083-090>094-181000-
   SOUTHWEST IOWA

CITY           SKY/WX    TMP DP  RH WIND       PRES   REMARKS
ATLANTIC *     CLEAR     28  28 100 CALM      30.09F FOG
AUDUBON *      CLOUDY    30  28  93 SW3       30.09F
CLARINDA *     FOG       28  28 100 S7        30.15S VSB 1   WCI  21
COUNCIL BLFS * CLEAR     30  30 100 SW7       30.07F WCI  23
CRESTON *      CLEAR     28  28 100 SW6       30.12R WCI  22
HARLAN  *      CLOUDY    27  27 100 CALM      30.11F FOG
LAMONI         FOG       31  31 100 S6        30.13R VSB 1/4 WCI  25
RED OAK *      CLOUDY    25  25 100 CALM      30.10F FOG
SHENANDOAH *   CLOUDY    27  27 100 CALM      30.12F
$$

IAZ047>049-059>061-072>074-084-181000-
   CENTRAL IOWA

CITY           SKY/WX    TMP DP  RH WIND       PRES   REMARKS
AMES           CLOUDY    31  31 100 SW14      30.11S FOG     WCI  21
ANKENY *       CLOUDY    32  30  93 SW8       30.14S WCI  25
BOONE *        CLOUDY    30  32 100 SW10G16   30.08F FOG     WCI  21
CHARITON *     MOCLDY    30  30 100 W3        30.12F
DES MOINES     CLOUDY    33  30  88 W8        30.12S WCI  26
GRINNELL*      CLOUDY    31  30  97 SW17      30.13R WCI  19
KNOXVILLE *    CLOUDY    32  30  93 W8        30.12F WCI  25
MARSHALLTOWN   CLOUDY    30  29  96 SW17      30.11R FOG     WCI  18
NEWTON *       CLOUDY    32  30  93 SW15G21   30.12S WCI  22
PELLA *        CLOUDY    32  30  91 W9        30.14F WCI  24
PERRY *        CLOUDY    32  32  99 SW12      30.11S FOG     WCI  23
$$

IAZ004>006-015-016-023>025-035-036-181000-
   NORTH CENTRAL IOWA

CITY           SKY/WX    TMP DP  RH WIND       PRES   REMARKS
ALGONA *       CLOUDY    30  30 100 S21       30.03R FOG     WCI  17
CLARION *      CLOUDY    28  30 100 SW17G23   30.07R FOG     WCI  16
ESTHERVILLE    CLOUDY    24  23  96 S14       29.98S WCI  12
FORT DODGE *   CLOUDY    30  27  86 MISG      30.08S
MASON CITY     CLOUDY    28  26  92 SW13      30.05S FOG     WCI  17
FOREST CITY *  CLOUDY    28  28 100 SW7       30.04R FOG     WCI  21
WEBSTER CITY * CLOUDY    30  30 100 SW16      30.06S FOG     WCI  19
IOWA FALLS *   CLOUDY    30  29  96 SW10      30.09R WCI  21
$$

IAZ007>011-017>019-026>030-037>042-050>054-066-181000-
   NORTHEAST IOWA

CITY           SKY/WX    TMP DP  RH WIND       PRES   REMARKS
CEDAR RAPIDS   CLOUDY    31  30  96 SW10      30.11R WCI  22
CHARLES CITY * FOG       30  30 100 SW10      30.06S VSB 1   WCI  21
CLINTON *      CLOUDY    33  33 100 W13       30.12R WCI  24
DECORAH *      FOG       30  30 100 SW6       30.04S VSB 1/4 WCI  24
DUBUQUE        CLOUDY    32  32 100 W9        30.09R FOG     WCI  24
MONTICELLO *   CLOUDY    34  32  93 W14       30.10R WCI  24
OELWEIN *      FOG       30  30 100 SW16      30.08R VSB 1/2 WCI  19
WATERLOO       CLOUDY    30  29  96 SW10      30.09S FOG     WCI  21
$$

IAZ064-065-067-068-078-181000-
   EAST CENTRAL IOWA

CITY           SKY/WX    TMP DP  RH WIND       PRES   REMARKS
DAVENPORT      CLOUDY    33  32  96 W10       30.13R FOG     WCI  25
IOWA CITY      CLOUDY    35  31  85 W12       30.15R WCI  27
MUSCATINE *    CLOUDY    36  34  93 W9        30.15R WCI  29
QUAD CITIES    CLOUDY    35  32  88 W7        30.13R FOG     WCI  29
$$

IAZ062-063-075>077-085>089-095>099-181000-
   SOUTHEAST IOWA

CITY           SKY/WX    TMP DP  RH WIND       PRES   REMARKS
BURLINGTON     CLOUDY    35  32  88 W9        30.14S WCI  28
FAIRFIELD *    CLOUDY    34  30  86 W8G14     30.14S WCI  27
FORT MADISON * CLOUDY    36  34  93 W5        30.16S WCI  32
KEOKUK *       CLOUDY    36  32  87 W7G14     30.16S WCI  30
OSKALOOSA *    CLOUDY    32  30  92 W9        30.14S WCI  24
OTTUMWA        CLOUDY    32  28  85 SW10      30.13S WCI  24
WASHINGTON *   CLOUDY    34  32  93 W10G20    30.15R WCI  26
$$

ABBREVIATIONS USED IN REMARKS
   TC - TEMPERATURES IN CELSIUS
  WCI - WIND CHILL INDEX
   HX - HEAT INDEX
  VSB - VISIBILITY
$$





USA.gov is the U.S. government's official web portal to all federal, state and local government web resources and services.